Location: Orange Harbor Mobile Home Park
(26.6923°N, 81.7937°W)
Time: 07:39:17
(UTC+00:00)

Cosmos 2173 Rocket - Pass Details

Date: 19 September 2020
Orbit: 946 x 999 km, 83.0° (Epoch: 29 October)

Event Time Altitude Azimuth Distance (km) Brightness Sun altitude
Rises 10:09:46 0° 358° (N) 3,703 7.1 -15.3°
Reaches altitude 10° 10:12:18 10° 0° (N) 2,757 6.5 -14.7°
Maximum altitude 10:18:37 71° 84° (E) 1,050 4.4 -13.3°
Drops below altitude 10° 10:24:57 10° 168° (SSE) 2,759 6.4 -11.9°
Sets 10:27:28 0° 171° (S) 3,704 7.1 -11.3°
